,,,PA_Meas_PMT16A,,PR_Meas_QMR101_102,,RH_Meas_QMH101,,SR_Meas_QMS101,,TA_Meas_QMH101,,GenWind,,GenWind,
date,time,status,PA,status,PR,status,RH,status,SR,status,TA,status,DirAvg,status,SpdAvg,
2010-10-25, 00:00:04,VALID,1003.07,VALID,0,INVALID,132.056,VALID,0,VALID,23.8787,VALID,98,VALID,0.846094,
2010-10-25, 00:01:04,VALID,1003.14,VALID,0,INVALID,146.742,VALID,0,VALID,23.7796,VALID,89,VALID,1.45,
2010-10-25, 00:02:04,VALID,1003.12,VALID,0,INVALID,160.779,VALID,0,VALID,23.7407,VALID,78,VALID,0.848047,
2010-10-25, 00:03:04,VALID,1003.1,VALID,0,INVALID,149.785,VALID,0,VALID,23.7017,VALID,85,VALID,1.49727,
2010-10-25, 00:04:04,VALID,1003.12,VALID,0,INVALID,163.639,VALID,0,VALID,23.6823,VALID,66,VALID,0.532812,
2010-10-25, 00:05:04,VALID,1003.14,VALID,0,INVALID,163.678,VALID,0,VALID,23.6452,VALID,72,VALID,1.16562,
2010-10-25, 00:06:04,VALID,1003.12,VALID,0,INVALID,163.685,VALID,0,VALID,23.585,VALID,95,VALID,0.744531,
2010-10-25, 00:07:04,VALID,1003.11,VALID,0,INVALID,163.678,VALID,0,VALID,23.5266,VALID,99,VALID,1.01445,
2010-10-25, 00:08:04,VALID,1003.08,VALID,0,INVALID,163.685,VALID,0,VALID,23.546,VALID,102,VALID,1.00234,
2010-10-25, 00:09:04,VALID,1003.09,VALID,0,INVALID,163.685,VALID,0,VALID,23.5868,VALID,78,VALID,0.780469,
2010-10-25, 00:10:04,VALID,1003.07,VALID,0,INVALID,163.693,VALID,0,VALID,23.5266,VALID,98,VALID,0.575,
2010-10-25, 00:11:04,VALID,1003.08,VALID,0,INVALID,163.701,VALID,0,VALID,23.5284,VALID,102,VALID,0.866016,
2010-10-25, 00:12:04,VALID,1003.04,VALID,0,INVALID,163.701,VALID,0.100563,VALID,23.5053,VALID,62,VALID,0.689062,
2010-10-25, 00:13:04,VALID,1003.04,VALID,0,INVALID,163.708,VALID,0.100563,VALID,23.4859,VALID,34,VALID,0.803125,
2010-10-25, 00:14:04,VALID,1003.04,VALID,0,INVALID,163.693,VALID,0.201126,VALID,23.4859,VALID,66,VALID,0.511328,
2010-10-25, 00:15:04,VALID,1003.05,VALID,0,INVALID,163.693,VALID,0.100563,VALID,23.4664,VALID,35,VALID,0.373437,
2010-10-25, 00:16:04,VALID,1003.04,VALID,0,INVALID,163.701,VALID,0.100563,VALID,23.447,VALID,77,VALID,0.355859,
2010-10-25, 00:17:04,VALID,1003.06,VALID,0,INVALID,163.708,VALID,0.100563,VALID,23.4664,VALID,79,VALID,0.667969,
2010-10-25, 00:18:04,VALID,1003.03,VALID,0,INVALID,163.708,VALID,0.100563,VALID,23.5053,VALID,90,VALID,0.889063,
2010-10-25, 00:19:04,VALID,1003.05,VALID,0,INVALID,163.708,VALID,0.100563,VALID,23.5248,VALID,68,VALID,0.454688,
2010-10-25, 00:20:04,VALID,1003.02,VALID,0,INVALID,163.708,VALID,0.100563,VALID,23.6044,VALID,96,VALID,0.446875,
2010-10-25, 00:21:04,VALID,1003.06,VALID,0,INVALID,163.708,VALID,0.100563,VALID,23.6416,VALID,60,VALID,0.896875,
2010-10-25, 00:22:04,VALID,1003.07,VALID,0,INVALID,163.678,VALID,0.100563,VALID,23.6805,VALID,75,VALID,0.354297,
2010-10-25, 00:23:04,VALID,1003.11,VALID,0,INVALID,163.708,VALID,0.100563,VALID,23.7017,VALID,85,VALID,0.5125,
2010-10-25, 00:24:04,VALID,1003.12,VALID,0,INVALID,163.678,VALID,0.100563,VALID,23.7,VALID,56,VALID,0.384375,
2010-10-25, 00:25:04,VALID,1003.17,VALID,0,INVALID,160.695,VALID,0.100563,VALID,23.7778,VALID,92,VALID,0.945313,
2010-10-25, 00:26:04,VALID,1003.17,VALID,0,INVALID,151.754,VALID,0.100563,VALID,23.8362,VALID,82,VALID,0.596094,
2010-10-25, 00:27:04,VALID,1003.15,VALID,0,INVALID,147.459,VALID,0,VALID,23.838,VALID,74,VALID,0.757813,
2010-10-25, 00:28:04,VALID,1003.18,VALID,0,INVALID,134.329,VALID,0,VALID,23.8787,VALID,45,VALID,0.61875,
2010-10-25, 00:29:04,VALID,1003.2,VALID,0,INVALID,126.372,VALID,0,VALID,23.9353,VALID,72,VALID,0.591797,
2010-10-25, 00:30:04,VALID,1003.22,VALID,0,INVALID,127.097,VALID,0,VALID,23.9566,VALID,66,VALID,0.557813,
2010-10-25, 00:31:04,VALID,1003.23,VALID,0,INVALID,127.326,VALID,0,VALID,23.9159,VALID,76,VALID,0.767578,
2010-10-25, 00:32:04,VALID,1003.28,VALID,0,INVALID,134.024,VALID,0.100563,VALID,23.8787,VALID,91,VALID,0.839844,
2010-10-25, 00:33:04,VALID,1003.29,VALID,0,INVALID,146.207,VALID,0,VALID,23.8398,VALID,47,VALID,0.616797,
2010-10-25, 00:34:04,VALID,1003.32,VALID,0,INVALID,149.747,VALID,0,VALID,23.8398,VALID,73,VALID,1.0918,
2010-10-25, 00:35:04,VALID,1003.33,VALID,0,INVALID,158.276,VALID,0.100563,VALID,23.8593,VALID,76,VALID,0.344141,
2010-10-25, 00:36:04,VALID,1003.39,VALID,0,INVALID,163.586,VALID,0.100563,VALID,23.8185,VALID,28,VALID,0.600391,
2010-10-25, 00:37:04,VALID,1003.4,VALID,0,INVALID,163.655,VALID,0.100563,VALID,23.8185,VALID,42,VALID,0.71875,
2010-10-25, 00:38:04,VALID,1003.42,VALID,0,INVALID,163.67,VALID,0.100563,VALID,23.7991,VALID,23,VALID,0.895703,
2010-10-25, 00:39:04,VALID,1003.42,VALID,0,INVALID,163.701,VALID,0.201126,VALID,23.8203,VALID,26,VALID,0.812891,
2010-10-25, 00:40:04,VALID,1003.45,VALID,0,INVALID,163.678,VALID,0.201126,VALID,23.8185,VALID,68,VALID,0.476563,
2010-10-25, 00:41:04,VALID,1003.46,VALID,0,INVALID,163.701,VALID,0.201126,VALID,23.8398,VALID,66,VALID,0.584766,
2010-10-25, 00:42:04,VALID,1003.46,VALID,0,INVALID,163.678,VALID,0.402252,VALID,23.7973,VALID,53,VALID,0.497266,
2010-10-25, 00:43:04,VALID,1003.48,VALID,0,INVALID,163.716,VALID,0.502815,VALID,23.8185,VALID,122,VALID,0.958984,
2010-10-25, 00:44:04,VALID,1003.48,VALID,0,INVALID,163.723,VALID,0.603378,VALID,23.8167,VALID,26,VALID,0.76875,
2010-10-25, 00:45:04,VALID,1003.48,VALID,0,INVALID,163.701,VALID,0.703941,VALID,23.8964,VALID,80,VALID,1.26445,
2010-10-25, 00:46:04,VALID,1003.47,VALID,0,INVALID,163.678,VALID,0.905066,VALID,23.9919,VALID,92,VALID,0.802734,
2010-10-25, 00:47:04,VALID,1003.49,VALID,0,INVALID,163.678,VALID,1.00563,VALID,24.0308,VALID,66,VALID,1.17461,
2010-10-25, 00:48:04,VALID,1003.5,VALID,0,INVALID,163.67,VALID,1.20676,VALID,24.0521,VALID,34,VALID,0.470313,
2010-10-25, 00:49:04,VALID,1003.48,VALID,0,INVALID,163.685,VALID,1.50844,VALID,24.0114,VALID,66,VALID,0.788672,
2010-10-25, 00:50:04,VALID,1003.51,VALID,0,INVALID,163.67,VALID,1.81013,VALID,24.0503,VALID,44,VALID,0.601563,
2010-10-25, 00:51:04,VALID,1003.48,VALID,0,INVALID,163.701,VALID,2.11182,VALID,24.1105,VALID,25,VALID,0.685938,
2010-10-25, 00:52:04,VALID,1003.5,VALID,0,INVALID,163.655,VALID,2.51407,VALID,24.1281,VALID,58,VALID,0.910937,
2010-10-25, 00:53:04,VALID,1003.5,VALID,0,INVALID,163.662,VALID,3.11745,VALID,24.1476,VALID,93,VALID,1.17734,
2010-10-25, 00:54:04,VALID,1003.49,VALID,0,INVALID,163.655,VALID,3.92195,VALID,24.1689,VALID,110,VALID,1.02305,
2010-10-25, 00:55:04,VALID,1003.51,VALID,0,INVALID,163.685,VALID,4.72646,VALID,24.206,VALID,99,VALID,0.845312,
2010-10-25, 00:56:04,VALID,1003.52,VALID,0,INVALID,163.678,VALID,5.93321,VALID,24.2857,VALID,88,VALID,1.14375,
2010-10-25, 00:57:04,VALID,1003.6,VALID,0,INVALID,163.632,VALID,6.93884,VALID,24.3441,VALID,71,VALID,0.823047,
2010-10-25, 00:58:04,VALID,1003.57,VALID,0,INVALID,163.647,VALID,8.1456,VALID,24.3849,VALID,53,VALID,0.842969,
2010-10-25, 00:59:04,VALID,1003.61,VALID,0,INVALID,163.639,VALID,9.75461,VALID,24.4238,VALID,59,VALID,0.796094,
2010-10-25, 01:00:04,VALID,1003.62,VALID,0,INVALID,163.647,VALID,11.6653,VALID,24.5212,VALID,77,VALID,0.695703,
2010-10-25, 01:01:04,VALID,1003.62,VALID,0,INVALID,163.639,VALID,13.8777,VALID,24.5601,VALID,22,VALID,0.627344,
2010-10-25, 01:02:04,VALID,1003.66,VALID,0,INVALID,163.647,VALID,16.0901,VALID,24.5777,VALID,37,VALID,0.907812,
2010-10-25, 01:03:04,VALID,1003.67,VALID,0,INVALID,163.617,VALID,17.498,VALID,24.638,VALID,43,VALID,0.894531,
2010-10-25, 01:04:04,VALID,1003.7,VALID,0,INVALID,163.624,VALID,19.0064,VALID,24.6945,VALID,69,VALID,0.340625,
2010-10-25, 01:05:04,VALID,1003.68,VALID,0,INVALID,163.639,VALID,21.4199,VALID,24.7353,VALID,54,VALID,0.426953,
2010-10-25, 01:06:04,VALID,1003.72,VALID,0,INVALID,163.632,VALID,25.6436,VALID,24.7353,VALID,74,VALID,0.898828,
2010-10-25, 01:07:04,VALID,1003.71,VALID,0,INVALID,163.624,VALID,30.0683,VALID,24.8522,VALID,95,VALID,0.439844,
2010-10-25, 01:08:04,VALID,1003.7,VALID,0,INVALID,163.632,VALID,34.4931,VALID,24.9087,VALID,85,VALID,0.263281,
2010-10-25, 01:09:04,VALID,1003.75,VALID,0,INVALID,163.609,VALID,40.0241,VALID,24.9671,VALID,79,VALID,0.884766,
2010-10-25, 01:10:04,VALID,1003.75,VALID,0,INVALID,163.594,VALID,50.1809,VALID,25.0469,VALID,98,VALID,0.692187,
2010-10-25, 01:11:04,VALID,1003.78,VALID,0,INVALID,163.594,VALID,56.1141,VALID,25.0839,VALID,36,VALID,0.375,
2010-10-25, 01:12:04,VALID,1003.81,VALID,0,INVALID,163.624,VALID,51.6894,VALID,25.1618,VALID,75,VALID,1.13594,
2010-10-25, 01:13:04,VALID,1003.87,VALID,0,INVALID,163.571,VALID,45.2533,VALID,25.2806,VALID,35,VALID,0.755469,
2010-10-25, 01:14:04,VALID,1003.86,VALID,0,INVALID,163.586,VALID,42.337,VALID,25.339,VALID,91,VALID,1.2293,
2010-10-25, 01:15:04,VALID,1003.86,VALID,0,INVALID,163.563,VALID,44.5494,VALID,25.3565,VALID,83,VALID,0.778906,
2010-10-25, 01:16:04,VALID,1003.88,VALID,0,INVALID,163.563,VALID,48.8736,VALID,25.4169,VALID,94,VALID,0.779688,
2010-10-25, 01:17:04,VALID,1003.91,VALID,0,INVALID,163.571,VALID,49.6781,VALID,25.4169,VALID,68,VALID,0.602344,
2010-10-25, 01:18:04,VALID,1003.9,VALID,0,INVALID,163.548,VALID,42.5381,VALID,25.4948,VALID,117,VALID,0.84375,
2010-10-25, 01:19:04,VALID,1003.93,VALID,0,INVALID,163.548,VALID,42.6387,VALID,25.4928,VALID,58,VALID,0.445313,
2010-10-25, 01:20:04,VALID,1003.94,VALID,0,INVALID,163.563,VALID,43.4432,VALID,25.5337,VALID,88,VALID,1.06016,
2010-10-25, 01:21:04,VALID,1003.97,VALID,0,INVALID,163.556,VALID,45.2533,VALID,25.5513,VALID,80,VALID,1.33086,
2010-10-25, 01:22:04,VALID,1004,VALID,0,INVALID,163.556,VALID,46.3595,VALID,25.5921,VALID,22,VALID,0.848828,
2010-10-25, 01:23:04,VALID,1004,VALID,0,INVALID,163.533,VALID,61.8462,VALID,25.5727,VALID,44,VALID,0.765234,
2010-10-25, 01:24:04,VALID,1004.02,VALID,0,INVALID,163.54,VALID,79.143,VALID,25.6136,VALID,56,VALID,0.570313,
2010-10-25, 01:25:04,VALID,1003.99,VALID,0,INVALID,163.563,VALID,86.5847,VALID,25.6116,VALID,78,VALID,0.680859,
2010-10-25, 01:26:04,VALID,1004.01,VALID,0,INVALID,163.556,VALID,87.6909,VALID,25.67,VALID,59,VALID,0.2625,
2010-10-25, 01:27:04,VALID,1004.04,VALID,0,INVALID,163.556,VALID,65.0642,VALID,25.709,VALID,54,VALID,0.538672,
2010-10-25, 01:28:04,VALID,1004.07,VALID,0,INVALID,163.517,VALID,69.5896,VALID,25.7265,VALID,49,VALID,0.721875,
2010-10-25, 01:29:04,VALID,1004.08,VALID,0,INVALID,163.563,VALID,70.0924,VALID,25.746,VALID,9,VALID,0.63125,
2010-10-25, 01:30:04,VALID,1004.11,VALID,0,INVALID,163.525,VALID,68.6845,VALID,25.746,VALID,22,VALID,1.14219,
2010-10-25, 01:31:04,VALID,1004.11,VALID,0,INVALID,163.54,VALID,97.6466,VALID,25.746,VALID,25,VALID,0.507422,
2010-10-25, 01:32:04,VALID,1004.14,VALID,0,INVALID,163.533,VALID,103.077,VALID,25.785,VALID,70,VALID,0.407422,
2010-10-25, 01:33:04,VALID,1004.16,VALID,0,INVALID,163.54,VALID,67.9806,VALID,25.8239,VALID,66,VALID,0.480859,
2010-10-25, 01:34:04,VALID,1004.18,VALID,0,INVALID,163.525,VALID,84.2718,VALID,25.8434,VALID,69,VALID,0.629297,
2010-10-25, 01:35:04,VALID,1004.18,VALID,0,INVALID,163.525,VALID,94.1269,VALID,25.8823,VALID,73,VALID,0.423047,
2010-10-25, 01:36:04,VALID,1004.2,VALID,0,INVALID,162.312,VALID,126.408,VALID,25.8823,VALID,108,VALID,1.10898,
2010-10-25, 01:37:04,VALID,1004.2,VALID,0,INVALID,159.184,VALID,126.408,VALID,25.9427,VALID,99,VALID,0.910547,
2010-10-25, 01:38:04,VALID,1004.22,VALID,0,INVALID,154.737,VALID,139.883,VALID,25.9602,VALID,89,VALID,1.21836,
2010-10-25, 01:39:04,VALID,1004.24,VALID,0,INVALID,147.893,VALID,124.296,VALID,26.0596,VALID,111,VALID,1.27383,
2010-10-25, 01:40:04,VALID,1004.26,VALID,0,INVALID,159.482,VALID,96.3393,VALID,26.116,VALID,59,VALID,0.0210938,
2010-10-25, 01:41:04,VALID,1004.28,VALID,0,INVALID,147.626,VALID,129.022,VALID,26.1745,VALID,79,VALID,0.75625,
2010-10-25, 01:42:04,VALID,1004.3,VALID,0,INVALID,135.802,VALID,80.8526,VALID,26.2329,VALID,79,VALID,0.798047,
2010-10-25, 01:43:04,VALID,1004.3,VALID,0,INVALID,118.408,VALID,80.6515,VALID,26.2524,VALID,48,VALID,1.09727,
2010-10-25, 01:44:04,VALID,1004.32,VALID,0,INVALID,113.251,VALID,140.989,VALID,26.2933,VALID,68,VALID,0.935938,
2010-10-25, 01:45:04,VALID,1004.33,VALID,0,INVALID,117.37,VALID,141.593,VALID,26.3128,VALID,133,VALID,0.619141,
2010-10-25, 01:46:04,VALID,1004.39,VALID,0,INVALID,118.545,VALID,125.201,VALID,26.3713,VALID,28,VALID,0.496484,
2010-10-25, 01:47:04,VALID,1004.38,VALID,0,INVALID,112.053,VALID,84.1712,VALID,26.3907,VALID,96,VALID,0.462891,
2010-10-25, 01:48:04,VALID,1004.4,VALID,0,VALID,104,VALID,153.66,VALID,26.4082,VALID,80,VALID,0.632031,
2010-10-25, 01:49:04,VALID,1004.43,VALID,0,VALID,103.661,VALID,130.732,VALID,26.4667,VALID,59,VALID,0.967578,
2010-10-25, 01:50:04,VALID,1004.47,VALID,0,VALID,104,VALID,166.331,VALID,26.5466,VALID,65,VALID,0.667969,
2010-10-25, 01:51:04,VALID,1004.48,VALID,0,VALID,100.808,VALID,72.6064,VALID,26.5855,VALID,48,VALID,0.412891,
2010-10-25, 01:52:04,VALID,1004.48,VALID,0,VALID,98.3515,VALID,63.053,VALID,26.6245,VALID,28,VALID,0.662891,
2010-10-25, 01:53:04,VALID,1004.49,VALID,0,VALID,97.7488,VALID,62.5502,VALID,26.5835,VALID,88,VALID,0.822266,
2010-10-25, 01:54:04,VALID,1004.52,VALID,0,VALID,98.3515,VALID,59.3321,VALID,26.5855,VALID,56,VALID,0.705859,
2010-10-25, 01:55:04,VALID,1004.53,VALID,0,VALID,99.2136,VALID,55.2091,VALID,26.5056,VALID,40,VALID,0.565234,
2010-10-25, 01:56:04,VALID,1004.54,VALID,0,VALID,100.427,VALID,51.7899,VALID,26.4881,VALID,28,VALID,0.499219,
2010-10-25, 01:57:04,VALID,1004.54,VALID,0,VALID,100.564,VALID,53.8012,VALID,26.4901,VALID,27,VALID,0.107031,
2010-10-25, 01:58:04,VALID,1004.54,VALID,0,VALID,98.7253,VALID,58.6282,VALID,26.4317,VALID,51,VALID,1.18945,
2010-10-25, 01:59:04,VALID,1004.61,VALID,0,VALID,98.6567,VALID,64.9637,VALID,26.4102,VALID,55,VALID,0.725781,
2010-10-25, 02:00:04,VALID,1004.64,VALID,0,VALID,99.1678,VALID,80.8526,VALID,26.3693,VALID,79,VALID,0.493359,
2010-10-25, 02:01:04,VALID,1004.63,VALID,0,VALID,101.266,VALID,95.5348,VALID,26.3887,VALID,81,VALID,0.373047,
2010-10-25, 02:02:04,VALID,1004.62,VALID,0,VALID,102.151,VALID,105.289,VALID,26.3887,VALID,124,VALID,0.660937,
2010-10-25, 02:03:04,VALID,1004.61,VALID,0,VALID,99.9307,VALID,106.496,VALID,26.3887,VALID,110,VALID,1.18203,
2010-10-25, 02:04:04,VALID,1004.62,VALID,0,VALID,100.945,VALID,95.8365,VALID,26.3693,VALID,88,VALID,0.7,
2010-10-25, 02:05:04,VALID,1004.63,VALID,0,VALID,101.708,VALID,103.178,VALID,26.3887,VALID,72,VALID,0.644141,
2010-10-25, 02:06:04,VALID,1004.61,VALID,0,VALID,100.625,VALID,140.587,VALID,26.3693,VALID,76,VALID,1.04023,
2010-10-25, 02:07:04,VALID,1004.58,VALID,0,VALID,98.2829,VALID,112.832,VALID,26.3887,VALID,84,VALID,0.460156,
2010-10-25, 02:08:04,VALID,1004.58,VALID,0,VALID,97.047,VALID,92.5179,VALID,26.4277,VALID,106,VALID,1.14375,
2010-10-25, 02:09:04,VALID,1004.59,VALID,0,VALID,97.7031,VALID,89.501,VALID,26.4667,VALID,84,VALID,0.471875,
2010-10-25, 02:10:04,VALID,1004.58,VALID,0,VALID,96.1468,VALID,95.6354,VALID,26.4881,VALID,73,VALID,0.911719,
2010-10-25, 02:11:04,VALID,1004.6,VALID,0,VALID,95.4449,VALID,97.5461,VALID,26.5076,VALID,84,VALID,1.43203,
2010-10-25, 02:12:04,VALID,1004.58,VALID,0,VALID,95.6662,VALID,87.6909,VALID,26.4861,VALID,100,VALID,0.906641,
2010-10-25, 02:13:04,VALID,1004.59,VALID,0,VALID,95.0558,VALID,82.0594,VALID,26.4861,VALID,87,VALID,0.616016,
2010-10-25, 02:14:04,VALID,1004.6,VALID,0,VALID,95.6356,VALID,96.2387,VALID,26.5076,VALID,64,VALID,0.891797,
2010-10-25, 02:15:04,VALID,1004.6,VALID,0,VALID,95.3152,VALID,119.871,VALID,26.5076,VALID,74,VALID,1.125,
2010-10-25, 02:16:04,VALID,1004.56,VALID,0,VALID,97.6268,VALID,133.145,VALID,26.5076,VALID,24,VALID,1.14258,
2010-10-25, 02:17:04,VALID,1004.57,VALID,0,VALID,96.7495,VALID,122.787,VALID,26.4881,VALID,29,VALID,0.876953,
2010-10-25, 02:18:04,VALID,1004.56,VALID,0,VALID,95.9561,VALID,114.24,VALID,26.5076,VALID,54,VALID,0.569531,
2010-10-25, 02:19:04,VALID,1004.55,VALID,0,VALID,96.7342,VALID,120.877,VALID,26.5271,VALID,42,VALID,0.341797,
2010-10-25, 02:20:04,VALID,1004.58,VALID,0,VALID,98.5194,VALID,129.827,VALID,26.6265,VALID,29,VALID,0.503906,
2010-10-25, 02:21:04,VALID,1004.58,VALID,0,VALID,98.0387,VALID,111.323,VALID,26.644,VALID,77,VALID,0.354688,
2010-10-25, 02:22:04,VALID,1004.63,VALID,0,VALID,95.8645,VALID,112.932,VALID,26.644,VALID,21,VALID,0.809375,
2010-10-25, 02:23:04,VALID,1004.58,VALID,0,VALID,94.6057,VALID,166.231,VALID,26.6635,VALID,72,VALID,0.661719,
2010-10-25, 02:24:04,VALID,1004.61,VALID,0,VALID,96.4672,VALID,326.126,VALID,26.8019,VALID,55,VALID,0.199609,
2010-10-25, 02:25:04,VALID,1004.63,VALID,0,VALID,93.8429,VALID,199.919,VALID,26.8603,VALID,90,VALID,1.6707,
2010-10-25, 02:26:04,VALID,1004.64,VALID,0,VALID,92.9045,VALID,144.61,VALID,26.8973,VALID,99,VALID,1.41172,
2010-10-25, 02:27:04,VALID,1004.64,VALID,0,VALID,94.2167,VALID,102.976,VALID,26.9383,VALID,95,VALID,0.919141,
2010-10-25, 02:28:04,VALID,1004.67,VALID,0,VALID,93.4309,VALID,101.267,VALID,26.9383,VALID,68,VALID,0.675391,
2010-10-25, 02:29:04,VALID,1004.69,VALID,0,VALID,92.4773,VALID,133.548,VALID,26.9362,VALID,22,VALID,0.9,
2010-10-25, 02:30:04,VALID,1004.71,VALID,0,VALID,93.942,VALID,136.162,VALID,26.9732,VALID,103,VALID,0.742578,
2010-10-25, 02:31:04,VALID,1004.74,VALID,0,VALID,93.1105,VALID,117.156,VALID,26.9926,VALID,83,VALID,0.625391,
2010-10-25, 02:32:04,VALID,1004.78,VALID,0,VALID,91.8288,VALID,110.72,VALID,27.0121,VALID,103,VALID,1.32109,
2010-10-25, 02:33:04,VALID,1004.82,VALID,0,VALID,92.7367,VALID,97.0432,VALID,27.0121,VALID,79,VALID,0.8,
2010-10-25, 02:34:04,VALID,1004.84,VALID,0,VALID,91.5389,VALID,122.385,VALID,27.0336,VALID,119,VALID,1.31836,
2010-10-25, 02:35:04,VALID,1004.91,VALID,0,VALID,92.2255,VALID,308.326,VALID,27.0921,VALID,103,VALID,0.976563,
2010-10-25, 02:36:04,VALID,1004.92,VALID,0,VALID,93.7361,VALID,391.391,VALID,27.1485,VALID,109,VALID,1.0418,
2010-10-25, 02:37:04,VALID,1004.95,VALID,0,VALID,92.0043,VALID,123.089,VALID,27.248,VALID,80,VALID,1.18945,
2010-10-25, 02:38:04,VALID,1004.99,VALID,0,VALID,91.4321,VALID,117.055,VALID,27.3238,VALID,100,VALID,1.08594,
2010-10-25, 02:39:04,VALID,1005.04,VALID,0,VALID,91.3482,VALID,121.078,VALID,27.3844,VALID,90,VALID,0.773438,
2010-10-25, 02:40:04,VALID,1005.05,VALID,0,VALID,91.9662,VALID,122.083,VALID,27.4039,VALID,59,VALID,0.400781,
2010-10-25, 02:41:04,VALID,1005.06,VALID,0,VALID,91.0812,VALID,135.861,VALID,27.4623,VALID,99,VALID,0.496484,
2010-10-25, 02:42:04,VALID,1005.07,VALID,0,VALID,90.86,VALID,387.368,VALID,27.5208,VALID,91,VALID,0.983594,
2010-10-25, 02:43:04,VALID,1005.1,VALID,0,VALID,89.3342,VALID,464.902,VALID,27.6377,VALID,78,VALID,1.32305,
2010-10-25, 02:44:04,VALID,1005.11,VALID,0,VALID,90.2725,VALID,209.271,VALID,27.7936,VALID,110,VALID,0.826953,
2010-10-25, 02:45:04,VALID,1005.14,VALID,0,VALID,88.4264,VALID,176.387,VALID,27.8716,VALID,98,VALID,0.967578,
2010-10-25, 02:46:04,VALID,1005.16,VALID,0,VALID,87.3507,VALID,230.39,VALID,27.93,VALID,92,VALID,0.913281,
2010-10-25, 02:47:04,VALID,1005.18,VALID,0,VALID,85.9851,VALID,188.656,VALID,27.9495,VALID,120,VALID,0.996094,
2010-10-25, 02:48:04,VALID,1005.2,VALID,0,VALID,87.6024,VALID,194.891,VALID,27.9864,VALID,117,VALID,0.814062,
2010-10-25, 02:49:04,VALID,1005.22,VALID,0,VALID,87.1066,VALID,213.897,VALID,28.0275,VALID,72,VALID,0.927734,
2010-10-25, 02:50:04,VALID,1005.24,VALID,0,VALID,86.748,VALID,122.083,VALID,28.1054,VALID,126,VALID,0.848828,
2010-10-25, 02:51:04,VALID,1005.25,VALID,0,VALID,86.6946,VALID,104.083,VALID,28.1249,VALID,139,VALID,0.729688,
2010-10-25, 02:52:04,VALID,1005.33,VALID,0,VALID,86.9769,VALID,126.709,VALID,28.1249,VALID,121,VALID,0.530469,
2010-10-25, 02:53:04,VALID,1005.32,VALID,0,VALID,87.3888,VALID,142.498,VALID,28.1444,VALID,115,VALID,0.962891,
2010-10-25, 02:54:04,VALID,1005.35,VALID,0,VALID,87.0379,VALID,140.587,VALID,28.1054,VALID,101,VALID,1.02266,
2010-10-25, 02:55:04,VALID,1005.35,VALID,0,VALID,85.3595,VALID,141.794,VALID,28.1054,VALID,87,VALID,1.33477,
2010-10-25, 02:56:04,VALID,1005.36,VALID,0,VALID,85.5426,VALID,155.873,VALID,28.1271,VALID,129,VALID,1.63516,
2010-10-25, 02:57:04,VALID,1005.42,VALID,0,VALID,85.0849,VALID,205.551,VALID,28.1271,VALID,116,VALID,2.0043,
2010-10-25, 02:58:04,VALID,1005.43,VALID,0,VALID,86.5954,VALID,199.919,VALID,28.1466,VALID,128,VALID,1.50977,
2010-10-25, 02:59:04,VALID,1005.46,VALID,0,VALID,86.5878,VALID,235.921,VALID,28.1444,VALID,60,VALID,1.11641,
2010-10-25, 03:00:04,VALID,1005.47,VALID,0,VALID,84.5738,VALID,573.611,VALID,28.2245,VALID,123,VALID,2.32188,
2010-10-25, 03:01:04,VALID,1005.47,VALID,0,VALID,85.3367,VALID,273.933,VALID,28.3025,VALID,102,VALID,1.29727,
2010-10-25, 03:02:04,VALID,1005.48,VALID,0,VALID,84.2,VALID,453.338,VALID,28.3783,VALID,140,VALID,2.76094,
2010-10-25, 03:03:04,VALID,1005.5,VALID,0,VALID,83.0632,VALID,602.875,VALID,28.4758,VALID,75,VALID,1.71211,
2010-10-25, 03:04:04,VALID,1005.53,VALID,0,VALID,82.2012,VALID,582.058,VALID,28.6339,VALID,112,VALID,1.76875,
2010-10-25, 03:05:04,VALID,1005.49,VALID,0,VALID,82.1096,VALID,303.298,VALID,28.7704,VALID,110,VALID,1.35391,
2010-10-25, 03:06:04,VALID,1005.49,VALID,0,VALID,81.8121,VALID,213.696,VALID,28.9263,VALID,95,VALID,0.88125,
2010-10-25, 03:07:04,VALID,1005.52,VALID,0,VALID,81.034,VALID,236.323,VALID,28.9436,VALID,94,VALID,1.29805,
2010-10-25, 03:08:04,VALID,1005.53,VALID,0,VALID,80.7975,VALID,559.029,VALID,28.9263,VALID,114,VALID,2.00195,
2010-10-25, 03:09:04,VALID,1005.5,VALID,0,VALID,79.5387,VALID,568.482,VALID,29.0021,VALID,150,VALID,2.08398,
2010-10-25, 03:10:04,VALID,1005.51,VALID,0,VALID,79.9354,VALID,247.586,VALID,29.0606,VALID,122,VALID,2.19922,
2010-10-25, 03:11:04,VALID,1005.51,VALID,0,VALID,77.7383,VALID,572.002,VALID,29.0411,VALID,83,VALID,2.61953,
2010-10-25, 03:12:04,VALID,1005.46,VALID,0,VALID,78.5393,VALID,577.432,VALID,29.0801,VALID,97,VALID,2.37617,
2010-10-25, 03:13:04,VALID,1005.51,VALID,0,VALID,79.47,VALID,564.963,VALID,29.1776,VALID,128,VALID,1.93281,
2010-10-25, 03:14:04,VALID,1005.46,VALID,0,VALID,74.2977,VALID,556.716,VALID,29.1971,VALID,136,VALID,2.78047,
2010-10-25, 03:15:04,VALID,1005.53,VALID,0,VALID,75.5564,VALID,183.025,VALID,29.1581,VALID,85,VALID,2.30039,
2010-10-25, 03:16:04,VALID,1005.58,VALID,0,VALID,78.6232,VALID,194.79,VALID,29.1191,VALID,116,VALID,2.44141,
2010-10-25, 03:17:04,VALID,1005.58,VALID,0,VALID,78.0206,VALID,412.509,VALID,29.0433,VALID,117,VALID,2.12422,
2010-10-25, 03:18:04,VALID,1005.56,VALID,0,VALID,78.9131,VALID,591.008,VALID,29.1581,VALID,111,VALID,1.37422,
2010-10-25, 03:19:04,VALID,1005.59,VALID,0,VALID,77.2195,VALID,584.07,VALID,29.2166,VALID,110,VALID,1.53555,
2010-10-25, 03:20:04,VALID,1005.59,VALID,0,VALID,80.2406,VALID,375.703,VALID,29.3358,VALID,122,VALID,1.53867,
2010-10-25, 03:21:04,VALID,1005.61,VALID,0,VALID,75.9684,VALID,207.361,VALID,29.4138,VALID,127,VALID,2.59297,
2010-10-25, 03:22:04,VALID,1005.59,VALID,0,VALID,75.9379,VALID,611.222,VALID,29.314,VALID,139,VALID,4.00391,
2010-10-25, 03:23:04,VALID,1005.58,VALID,0,VALID,75.3504,VALID,269.106,VALID,29.314,VALID,132,VALID,3.10977,
2010-10-25, 03:24:04,VALID,1005.62,VALID,0,VALID,77.4789,VALID,526.849,VALID,29.2968,VALID,93,VALID,2.09883,
2010-10-25, 03:25:04,VALID,1005.62,VALID,0,VALID,77.2424,VALID,619.971,VALID,29.353,VALID,139,VALID,1.75039,
2010-10-25, 03:26:04,VALID,1005.69,VALID,0,VALID,77.1585,VALID,643.703,VALID,29.4333,VALID,93,VALID,2.24453,
2010-10-25, 03:27:04,VALID,1005.65,VALID,0,VALID,77.0669,VALID,667.135,VALID,29.5503,VALID,102,VALID,2.01953,
2010-10-25, 03:28:04,VALID,1005.68,VALID,0,VALID,78.6538,VALID,669.548,VALID,29.6478,VALID,118,VALID,2.1457,
2010-10-25, 03:29:04,VALID,1005.7,VALID,0,VALID,77.9519,VALID,667.537,VALID,29.743,VALID,105,VALID,1.38789,
2010-10-25, 03:30:04,VALID,1005.72,VALID,0,VALID,75.9837,VALID,698.007,VALID,29.8795,VALID,101,VALID,2.33047,
2010-10-25, 03:31:04,VALID,1005.65,VALID,0,VALID,74.3511,VALID,305.711,VALID,29.743,VALID,118,VALID,2.14219,
2010-10-25, 03:32:04,VALID,1005.68,VALID,0,VALID,76.388,VALID,406.475,VALID,29.626,VALID,83,VALID,2.42461,
2010-10-25, 03:33:04,VALID,1005.7,VALID,0,VALID,75.8311,VALID,459.07,VALID,29.5503,VALID,117,VALID,2.18125,